• In Hungary
  • List of Countries
  • For 7 days
  • Water Temperature
  • Satellite Maps
  • Weather Map
  • News
  • Weather Widgets
  • user-avatar
    Login

    Hourly Weather Bhubaneswar

    Today, 17 July, Tuesday

    Time Temperature Precipitation Wind Pressure Humidity
    00:00 +29°C° 0 mm 4 mps 745 mmHg 84%
    01:00 +29°C° 0.2 mm 3 mps 745 mmHg 84%
    02:00 +29°C° 0.2 mm 3 mps 745 mmHg 84%
    03:00 +29°C° 0.2 mm 3 mps 745 mmHg 85%
    04:00 +29°C° 0 mm 3 mps 745 mmHg 85%
    05:00 +29°C° 0 mm 3 mps 744 mmHg 86%
    06:00 +29°C° 0 mm 3 mps 744 mmHg 87%
    07:00 +30°C° 0 mm 3 mps 745 mmHg 80%
    08:00 +33°C° 0 mm 4 mps 745 mmHg 73%
    09:00 +34°C° 0 mm 4 mps 745 mmHg 67%
    10:00 +35°C° 0.1 mm 4 mps 745 mmHg 64%
    11:00 +35°C° 0.1 mm 4 mps 745 mmHg 62%
    12:00 +36°C° 0.1 mm 4 mps 744 mmHg 59%
    13:00 +36°C° 1.1 mm 5 mps 744 mmHg 59%
    14:00 +37°C° 1.1 mm 5 mps 743 mmHg 59%
    15:00 +37°C° 1.1 mm 5 mps 743 mmHg 59%
    16:00 +36°C° 1.8 mm 5 mps 743 mmHg 63%
    17:00 +35°C° 1.8 mm 5 mps 743 mmHg 67%
    18:00 +34°C° 1.8 mm 5 mps 743 mmHg 71%
    19:00 +34°C° 1.1 mm 4 mps 743 mmHg 73%
    20:00 +33°C° 1.1 mm 4 mps 744 mmHg 75%
    21:00 +31°C° 1.1 mm 3 mps 744 mmHg 78%
    22:00 +31°C° 0.4 mm 3 mps 744 mmHg 78%
    23:00 +31°C° 0.4 mm 3 mps 745 mmHg 78%

    Tomorrow, 18 July, Wednesday

    Time Temperature Precipitation Wind Pressure Humidity
    00:00 +31°C° 0.4 mm 2 mps 745 mmHg 79%
    01:00 +31°C° 0 mm 2 mps 745 mmHg 79%
    02:00 +31°C° 0 mm 2 mps 745 mmHg 79%
    03:00 +31°C° 0 mm 2 mps 744 mmHg 78%
    04:00 +30°C° 0 mm 2 mps 744 mmHg 79%
    05:00 +30°C° 0 mm 2 mps 745 mmHg 80%
    06:00 +30°C° 0 mm 2 mps 745 mmHg 80%
    07:00 +31°C° 0 mm 2 mps 745 mmHg 74%
    08:00 +34°C° 0 mm 3 mps 745 mmHg 68%
    09:00 +35°C° 0 mm 3 mps 746 mmHg 62%
    10:00 +35°C° 0.2 mm 3 mps 746 mmHg 61%
    11:00 +36°C° 0.2 mm 3 mps 746 mmHg 60%
    12:00 +36°C° 0.2 mm 2 mps 745 mmHg 59%
    13:00 +36°C° 1.5 mm 3 mps 745 mmHg 60%
    14:00 +36°C° 1.5 mm 3 mps 744 mmHg 60%
    15:00 +36°C° 1.5 mm 4 mps 744 mmHg 61%
    16:00 +36°C° 1.7 mm 4 mps 744 mmHg 64%
    17:00 +35°C° 1.7 mm 4 mps 743 mmHg 66%
    18:00 +35°C° 1.7 mm 4 mps 743 mmHg 69%
    19:00 +34°C° 0.7 mm 4 mps 744 mmHg 72%
    20:00 +33°C° 0.7 mm 3 mps 745 mmHg 75%
    21:00 +32°C° 0.7 mm 2 mps 745 mmHg 78%
    22:00 +32°C° 0.6 mm 2 mps 745 mmHg 78%
    23:00 +31°C° 0.6 mm 2 mps 745 mmHg 78%

    Day after tomorrow, 19 July, Thursday

    Time Temperature Precipitation Wind Pressure Humidity
    00:00 +31°C° 0.6 mm 2 mps 745 mmHg 78%
    01:00 +31°C° 0.2 mm 2 mps 745 mmHg 79%
    02:00 +31°C° 0.2 mm 2 mps 745 mmHg 79%
    03:00 +31°C° 0.2 mm 2 mps 744 mmHg 80%
    04:00 +31°C° 0 mm 2 mps 744 mmHg 81%
    05:00 +30°C° 0 mm 2 mps 744 mmHg 81%
    06:00 +30°C° 0 mm 2 mps 745 mmHg 82%
    07:00 +31°C° 0 mm 3 mps 745 mmHg 77%
    08:00 +33°C° 0 mm 4 mps 746 mmHg 71%
    09:00 +34°C° 0 mm 5 mps 746 mmHg 66%
    10:00 +35°C° 1.7 mm 5 mps 746 mmHg 64%
    11:00 +36°C° 1.7 mm 5 mps 746 mmHg 62%
    12:00 +37°C° 1.7 mm 5 mps 746 mmHg 61%
    13:00 +37°C° 3.8 mm 5 mps 745 mmHg 62%
    14:00 +36°C° 3.8 mm 4 mps 744 mmHg 62%
    15:00 +36°C° 3.8 mm 4 mps 744 mmHg 63%
    16:00 +36°C° 3.2 mm 3 mps 744 mmHg 66%
    17:00 +35°C° 3.2 mm 3 mps 744 mmHg 68%
    18:00 +35°C° 3.2 mm 3 mps 744 mmHg 70%
    19:00 +34°C° 1.9 mm 3 mps 744 mmHg 73%
    20:00 +33°C° 1.9 mm 3 mps 745 mmHg 76%
    21:00 +33°C° 1.9 mm 3 mps 745 mmHg 79%
    22:00 +31°C° 1.5 mm 3 mps 745 mmHg 79%
    23:00 +31°C° 1.5 mm 3 mps 745 mmHg 79%

    20 July, Friday

    Time Temperature Precipitation Wind Pressure Humidity
    00:00 +31°C° 1.5 mm 3 mps 745 mmHg 79%
    01:00 +31°C° 0.3 mm 3 mps 745 mmHg 79%
    02:00 +30°C° 0.3 mm 3 mps 744 mmHg 80%
    03:00 +30°C° 0.3 mm 3 mps 744 mmHg 81%
    04:00 +30°C° 0 mm 3 mps 744 mmHg 81%
    05:00 +30°C° 0 mm 3 mps 744 mmHg 81%
    06:00 +30°C° 0 mm 3 mps 744 mmHg 82%
    07:00 +32°C° 0 mm 4 mps 745 mmHg 77%
    08:00 +33°C° 0 mm 4 mps 745 mmHg 73%
    09:00 +33°C° 0 mm 5 mps 746 mmHg 69%
    10:00 +34°C° 1 mm 6 mps 746 mmHg 67%
    11:00 +35°C° 1 mm 6 mps 746 mmHg 65%
    12:00 +36°C° 1 mm 6 mps 745 mmHg 64%
    13:00 +35°C° 3.1 mm 5 mps 745 mmHg 67%
    14:00 +34°C° 3.1 mm 5 mps 744 mmHg 71%
    15:00 +33°C° 3.1 mm 4 mps 744 mmHg 74%
    16:00 +33°C° 1.6 mm 4 mps 744 mmHg 76%
    17:00 +33°C° 1.6 mm 4 mps 744 mmHg 77%
    18:00 +32°C° 1.6 mm 4 mps 744 mmHg 79%
    19:00 +32°C° 0.5 mm 4 mps 745 mmHg 80%
    20:00 +32°C° 0.5 mm 4 mps 745 mmHg 81%
    21:00 +30°C° 0.5 mm 4 mps 746 mmHg 82%
    22:00 +30°C° 0 mm 4 mps 746 mmHg 83%
    23:00 +30°C° 0 mm 4 mps 746 mmHg 83%

    21 July, Saturday

    Time Temperature Precipitation Wind Pressure Humidity
    00:00 +30°C° 0 mm 4 mps 746 mmHg 84%
    01:00 +29°C° 0 mm 4 mps 745 mmHg 84%
    02:00 +29°C° 0 mm 4 mps 745 mmHg 84%
    03:00 +29°C° 0 mm 4 mps 744 mmHg 84%
    04:00 +29°C° 0.1 mm 4 mps 744 mmHg 84%
    05:00 +29°C° 0.1 mm 3 mps 744 mmHg 84%
    06:00 +29°C° 0.1 mm 3 mps 744 mmHg 84%
    07:00 +30°C° 0.4 mm 4 mps 745 mmHg 80%
    08:00 +32°C° 0.4 mm 6 mps 745 mmHg 76%
    09:00 +32°C° 0.4 mm 8 mps 746 mmHg 72%
    10:00 +34°C° 0.2 mm 8 mps 745 mmHg 68%
    11:00 +35°C° 0.2 mm 8 mps 745 mmHg 65%
    12:00 +37°C° 0.2 mm 8 mps 745 mmHg 61%
    13:00 +37°C° 1.3 mm 8 mps 745 mmHg 61%
    14:00 +37°C° 1.3 mm 8 mps 744 mmHg 62%
    15:00 +35°C° 1.3 mm 8 mps 744 mmHg 62%
    16:00 +35°C° 1 mm 7 mps 744 mmHg 65%
    17:00 +34°C° 1 mm 6 mps 744 mmHg 68%
    18:00 +33°C° 1 mm 5 mps 744 mmHg 70%
    19:00 +32°C° 0.8 mm 5 mps 745 mmHg 73%
    20:00 +32°C° 0.8 mm 5 mps 745 mmHg 76%
    21:00 +30°C° 0.8 mm 5 mps 746 mmHg 79%
    22:00 +30°C° 0.8 mm 5 mps 746 mmHg 80%
    23:00 +29°C° 0.8 mm 5 mps 746 mmHg 81%

    22 July, Sunday

    Time Temperature Precipitation Wind Pressure Humidity
    00:00 +29°C° 0.8 mm 6 mps 746 mmHg 82%
    01:00 +29°C° 1.2 mm 5 mps 745 mmHg 83%
    02:00 +28°C° 1.2 mm 5 mps 745 mmHg 85%
    03:00 +28°C° 1.2 mm 4 mps 744 mmHg 86%
    04:00 +28°C° 1.1 mm 4 mps 744 mmHg 86%
    05:00 +28°C° 1.1 mm 4 mps 745 mmHg 87%
    06:00 +28°C° 1.1 mm 4 mps 745 mmHg 87%
    07:00 +29°C° 0.7 mm 5 mps 745 mmHg 85%
    08:00 +29°C° 0.7 mm 5 mps 745 mmHg 82%
    09:00 +30°C° 0.7 mm 6 mps 746 mmHg 80%
    10:00 +30°C° 0.3 mm 6 mps 745 mmHg 77%
    11:00 +32°C° 0.3 mm 6 mps 745 mmHg 75%
    12:00 +33°C° 0.3 mm 6 mps 745 mmHg 72%
    13:00 +33°C° 0.7 mm 6 mps 745 mmHg 72%
    14:00 +33°C° 0.7 mm 6 mps 744 mmHg 72%
    15:00 +33°C° 0.7 mm 6 mps 743 mmHg 71%
    16:00 +33°C° 1.1 mm 5 mps 744 mmHg 74%
    17:00 +32°C° 1.1 mm 5 mps 744 mmHg 76%
    18:00 +32°C° 1.1 mm 5 mps 744 mmHg 78%
    19:00 +30°C° 0.9 mm 4 mps 744 mmHg 80%
    20:00 +30°C° 0.9 mm 4 mps 745 mmHg 82%
    21:00 +29°C° 0.9 mm 4 mps 745 mmHg 84%
    22:00 +29°C° 1.1 mm 4 mps 745 mmHg 85%
    23:00 +29°C° 1.1 mm 4 mps 745 mmHg 86%
    Show more